| time (UTC) | temp F | wind direction | speed knots | gust knots | rain 1hr in | rain 24hr in | rain mn in | humidity % | barometer mb |
| 20260507231614 | 57 | 22 | 1.7 | 13.0 | 0.00 | 0.00 | 0.00 | 44 | 1010.1 |
| 20260507231112 | 57 | 66 | 1.7 | 7.8 | 0.00 | 0.00 | 0.00 | 41 | 1009.9 |
| 20260507230611 | 57 | 260 | 2.6 | 7.8 | 0.00 | 0.00 | 0.00 | 40 | 1010.0 |
| 20260507230115 | 58 | 20 | 0.0 | 7.8 | 0.00 | 0.00 | 0.00 | 42 | 1009.9 |
| 20260507225611 | 58 | 355 | 1.7 | 7.8 | 0.00 | 0.00 | 0.00 | 40 | 1009.9 |
| 20260507225112 | 59 | 147 | 2.6 | 6.1 | 0.00 | 0.00 | 0.00 | 41 | 1009.9 |
| 20260507224616 | 59 | 151 | 1.7 | 6.1 | 0.00 | 0.00 | 0.00 | 40 | 1009.7 |
| 20260507224111 | 59 | 221 | 1.7 | 7.0 | 0.00 | 0.00 | 0.00 | 37 | 1009.8 |
| 20260507223612 | 58 | 331 | 1.7 | 7.0 | 0.00 | 0.00 | 0.00 | 39 | 1009.8 |
| 20260507223343 | 59 | 52 | 0.0 | 7.8 | 0.00 | 0.00 | 0.00 | 39 | 1009.6 |
| 20260507222611 | 60 | 154 | 0.0 | 7.8 | 0.00 | 0.00 | 0.00 | 40 | 1009.4 |
| 20260507222112 | 60 | 141 | 0.0 | 7.0 | 0.00 | 0.00 | 0.00 | 40 | 1009.4 |
| 20260507221614 | 61 | 124 | 0.0 | 7.0 | 0.00 | 0.00 | 0.00 | 38 | 1009.5 |
| 20260507221111 | 61 | 18 | 0.0 | 6.1 | 0.00 | 0.00 | 0.00 | 38 | 1009.6 |
| 20260507220612 | 60 | 41 | 0.0 | 6.1 | 0.00 | 0.00 | 0.00 | 39 | 1009.4 |
| 20260507220115 | 61 | 288 | 1.7 | 7.0 | 0.00 | 0.00 | 0.00 | 36 | 1009.3 |
| 20260507215613 | 61 | 33 | 0.0 | 7.0 | 0.00 | 0.00 | 0.00 | 39 | 1009.3 |
| 20260507215111 | 59 | 99 | 0.0 | 7.0 | 0.00 | 0.00 | 0.00 | 39 | 1009.5 |
| 20260507214614 | 59 | 338 | 1.7 | 7.8 | 0.00 | 0.00 | 0.00 | 38 | 1009.4 |
| 20260507214112 | 60 | 99 | 1.7 | 7.8 | 0.00 | 0.00 | 0.00 | 37 | 1009.2 |
| 20260507213612 | 62 | 308 | 1.7 | 5.2 | 0.00 | 0.00 | 0.00 | 35 | 1009.1 |
| 20260507213337 | 63 | 1 | 1.7 | 7.0 | 0.00 | 0.00 | 0.00 | 35 | 1009.1 |
| 20260507212611 | 61 | 44 | 0.0 | 7.0 | 0.00 | 0.00 | 0.00 | 38 | 1009.1 |
| 20260507212113 | 60 | 235 | 3.5 | 7.8 | 0.00 | 0.00 | 0.00 | 37 | 1009.1 |
| 20260507211614 | 60 | 307 | 2.6 | 7.8 | 0.00 | 0.00 | 0.00 | 38 | 1009.2 |
| 20260507211340 | 60 | 264 | 0.0 | 5.2 | 0.00 | 0.00 | 0.00 | 37 | 1009.0 |
| 20260507210611 | 60 | 252 | 1.7 | 9.6 | 0.00 | 0.00 | 0.00 | 36 | 1009.0 |
| 20260507210338 | 60 | 4 | 1.7 | 9.6 | 0.00 | 0.00 | 0.00 | 37 | 1008.9 |
| 20260507205613 | 61 | 314 | 0.9 | 5.2 | 0.00 | 0.00 | 0.00 | 36 | 1009.0 |
| 20260507205111 | 60 | 277 | 0.9 | 7.0 | 0.00 | 0.00 | 0.00 | 39 | 1009.1 |
| 20260507204615 | 60 | 194 | 2.6 | 8.7 | 0.00 | 0.00 | 0.00 | 38 | 1008.9 |
| 20260507204112 | 61 | 212 | 5.2 | 8.7 | 0.00 | 0.00 | 0.00 | 36 | 1009.0 |
| 20260507203611 | 60 | 45 | 2.6 | 7.0 | 0.00 | 0.00 | 0.00 | 39 | 1008.8 |
| 20260507203114 | 60 | 222 | 0.0 | 7.8 | 0.00 | 0.00 | 0.00 | 38 | 1008.9 |
| 20260507202853 | 62 | 109 | 1.7 | 12.2 | 0.00 | 0.00 | 0.00 | 40 | 1009.1 |
| 20260507202112 | 62 | 347 | 5.2 | 12.2 | 0.00 | 0.00 | 0.00 | 37 | 1009.1 |
| 20260507201615 | 59 | 155 | 0.0 | 7.0 | 0.00 | 0.00 | 0.00 | 40 | 1009.0 |
| 20260507201111 | 59 | 249 | 2.6 | 7.8 | 0.00 | 0.00 | 0.00 | 39 | 1008.9 |
| 20260507200612 | 60 | 85 | 1.7 | 7.8 | 0.00 | 0.00 | 0.00 | 41 | 1009.2 |
| 20260507200337 | 60 | 53 | 1.7 | 12.2 | 0.00 | 0.00 | 0.00 | 39 | 1009.0 |
| 20260507195611 | 60 | 101 | 2.6 | 12.2 | 0.00 | 0.00 | 0.00 | 38 | 1009.4 |
| 20260507195112 | 61 | 192 | 0.9 | 7.0 | 0.00 | 0.00 | 0.00 | 38 | 1009.1 |
| 20260507194615 | 62 | 266 | 1.7 | 7.8 | 0.00 | 0.00 | 0.00 | 38 | 1009.5 |
| 20260507194111 | 61 | 199 | 2.6 | 7.8 | 0.00 | 0.00 | 0.00 | 40 | 1009.5 |
| 20260507193611 | 62 | 212 | 2.6 | 10.4 | 0.00 | 0.00 | 0.00 | 39 | 1009.2 |
| 20260507193117 | 60 | 302 | 2.6 | 14.8 | 0.00 | 0.00 | 0.00 | 41 | 1009.5 |
| 20260507192611 | 61 | 171 | 1.7 | 14.8 | 0.00 | 0.00 | 0.00 | 42 | 1009.6 |
| 20260507192111 | 61 | 280 | 2.6 | 9.6 | 0.00 | 0.00 | 0.00 | 41 | 1009.7 |
| 20260507191615 | 59 | 220 | 1.7 | 9.6 | 0.00 | 0.00 | 0.00 | 42 | 1009.7 |
| 20260507191111 | 59 | 338 | 1.7 | 7.8 | 0.00 | 0.00 | 0.00 | 43 | 1009.4 |
| 20260507190612 | 59 | 215 | 0.9 | 7.8 | 0.00 | 0.00 | 0.00 | 44 | 1009.3 |
| 20260507190116 | 60 | 280 | 5.2 | 7.8 | 0.00 | 0.00 | 0.00 | 42 | 1009.5 |
| 20260507185611 | 59 | 174 | 3.5 | 9.6 | 0.00 | 0.00 | 0.00 | 42 | 1009.7 |
| 20260507185112 | 60 | 230 | 1.7 | 13.9 | 0.00 | 0.00 | 0.00 | 42 | 1009.7 |
| 20260507184615 | 59 | 210 | 1.7 | 13.9 | 0.00 | 0.00 | 0.00 | 42 | 1009.5 |
| 20260507184335 | 59 | 37 | 0.9 | 8.7 | 0.00 | 0.00 | 0.00 | 47 | 1009.7 |
| 20260507183612 | 60 | 219 | 2.6 | 8.7 | 0.00 | 0.00 | 0.00 | 42 | 1009.9 |
| 20260507183114 | 60 | 210 | 2.6 | 7.8 | 0.00 | 0.00 | 0.00 | 43 | 1009.7 |
| 20260507182611 | 59 | 43 | 3.5 | 8.7 | 0.00 | 0.00 | 0.00 | 44 | 1009.9 |
| 20260507182112 | 60 | 29 | 1.7 | 9.6 | 0.00 | 0.00 | 0.00 | 43 | 1009.7 |
| 20260507181615 | 61 | 191 | 2.6 | 9.6 | 0.00 | 0.00 | 0.00 | 43 | 1009.9 |
| 20260507181113 | 60 | 219 | 7.0 | 7.8 | 0.00 | 0.00 | 0.00 | 43 | 1009.8 |
| 20260507180612 | 63 | 159 | 4.3 | 7.8 | 0.00 | 0.00 | 0.00 | 43 | 1010.0 |
| 20260507180116 | 62 | 209 | 2.6 | 10.4 | 0.00 | 0.00 | 0.00 | 42 | 1010.2 |
| 20260507175612 | 61 | 251 | 1.7 | 12.2 | 0.00 | 0.00 | 0.00 | 43 | 1010.2 |
| 20260507175113 | 60 | 246 | 1.7 | 12.2 | 0.00 | 0.00 | 0.00 | 41 | 1010.1 |
| 20260507174840 | 61 | 160 | 10.4 | 10.4 | 0.00 | 0.00 | 0.00 | 43 | 1010.1 |
| 20260507174332 | 60 | 315 | 2.6 | 7.0 | 0.00 | 0.00 | 0.00 | 45 | 1010.1 |
| 20260507173829 | 60 | 42 | 1.7 | 6.1 | 0.00 | 0.00 | 0.00 | 42 | 1010.3 |
| 20260507173339 | 61 | 123 | 1.7 | 9.6 | 0.00 | 0.00 | 0.00 | 41 | 1010.3 |
| 20260507172612 | 60 | 248 | 3.5 | 9.6 | 0.00 | 0.00 | 0.00 | 42 | 1010.3 |
| 20260507172112 | 60 | 176 | 2.6 | 7.8 | 0.00 | 0.00 | 0.00 | 43 | 1010.6 |
| 20260507171614 | 59 | 137 | 3.5 | 5.2 | 0.00 | 0.00 | 0.00 | 46 | 1010.5 |
| 20260507171111 | 58 | 38 | 0.0 | 6.1 | 0.00 | 0.00 | 0.00 | 46 | 1010.6 |
| 20260507170834 | 58 | 23 | 3.5 | 6.1 | 0.00 | 0.00 | 0.00 | 44 | 1010.9 |
| 20260507170114 | 58 | 62 | 2.6 | 7.0 | 0.00 | 0.00 | 0.00 | 43 | 1011.1 |
| 20260507165613 | 58 | 232 | 1.7 | 7.8 | 0.00 | 0.00 | 0.00 | 42 | 1010.7 |
| 20260507165113 | 58 | 30 | 1.7 | 7.8 | 0.00 | 0.00 | 0.00 | 44 | 1010.8 |
| 20260507164616 | 60 | 334 | 3.5 | 7.8 | 0.00 | 0.00 | 0.00 | 42 | 1010.9 |
| 20260507164112 | 58 | 250 | 2.6 | 7.0 | 0.00 | 0.00 | 0.00 | 42 | 1010.8 |
| 20260507163834 | 59 | 342 | 0.9 | 9.6 | 0.00 | 0.00 | 0.00 | 45 | 1010.9 |
| 20260507163114 | 59 | 250 | 3.5 | 9.6 | 0.00 | 0.00 | 0.00 | 44 | 1011.2 |
| 20260507162611 | 57 | 208 | 1.7 | 9.6 | 0.00 | 0.00 | 0.00 | 45 | 1011.1 |
| 20260507162335 | 58 | 132 | 2.6 | 9.6 | 0.00 | 0.00 | 0.00 | 43 | 1011.1 |
| 20260507161838 | 57 | 238 | 2.6 | 9.6 | 0.00 | 0.00 | 0.00 | 43 | 1011.2 |
| 20260507161112 | 59 | 118 | 1.7 | 7.8 | 0.00 | 0.00 | 0.00 | 43 | 1011.0 |
| 20260507160612 | 57 | 355 | 1.7 | 7.8 | 0.00 | 0.00 | 0.00 | 46 | 1011.2 |
| 20260507160115 | 58 | 323 | 1.7 | 9.6 | 0.00 | 0.00 | 0.00 | 44 | 1011.1 |
| 20260507155836 | 58 | 164 | 1.7 | 9.6 | 0.00 | 0.00 | 0.00 | 49 | 1011.1 |
| 20260507155112 | 56 | 203 | 2.6 | 8.7 | 0.00 | 0.00 | 0.00 | 45 | 1011.3 |
| 20260507154615 | 57 | 166 | 1.7 | 9.6 | 0.00 | 0.00 | 0.00 | 45 | 1011.3 |
| 20260507154111 | 57 | 66 | 3.5 | 9.6 | 0.00 | 0.00 | 0.00 | 47 | 1011.3 |
| 20260507153612 | 56 | 184 | 0.0 | 5.2 | 0.00 | 0.00 | 0.00 | 52 | 1011.6 |
| 20260507153114 | 55 | 242 | 1.7 | 6.1 | 0.00 | 0.00 | 0.00 | 49 | 1011.5 |
| 20260507152611 | 56 | 258 | 2.6 | 6.1 | 0.00 | 0.00 | 0.00 | 47 | 1011.6 |
| 20260507152333 | 57 | 256 | 0.0 | 6.1 | 0.00 | 0.00 | 0.00 | 51 | 1011.3 |
| 20260507151616 | 58 | 72 | 1.7 | 5.2 | 0.00 | 0.00 | 0.00 | 48 | 1011.7 |
| 20260507151111 | 57 | 13 | 1.7 | 6.1 | 0.00 | 0.00 | 0.00 | 51 | 1011.7 |
| 20260507150842 | 56 | 131 | 1.7 | 6.1 | 0.00 | 0.00 | 0.00 | 48 | 1011.8 |
| 20260507150115 | 56 | 344 | 1.7 | 5.2 | 0.00 | 0.00 | 0.00 | 49 | 1011.8 |
| 20260507145612 | 56 | 152 | 0.9 | 7.8 | 0.00 | 0.00 | 0.00 | 49 | 1011.8 |
| 20260507145112 | 55 | 251 | 0.9 | 7.8 | 0.00 | 0.01 | 0.00 | 48 | 1011.9 |
| 20260507144616 | 55 | 295 | 1.7 | 7.0 | 0.00 | 0.01 | 0.00 | 50 | 1012.0 |
| 20260507144112 | 55 | 203 | 0.0 | 7.0 | 0.00 | 0.01 | 0.00 | 52 | 1012.1 |
| 20260507143611 | 54 | 206 | 2.6 | 7.0 | 0.00 | 0.01 | 0.00 | 52 | 1012.0 |
| 20260507143114 | 54 | 126 | 3.5 | 7.0 | 0.00 | 0.01 | 0.00 | 52 | 1012.2 |
| 20260507142611 | 55 | 196 | 1.7 | 5.2 | 0.00 | 0.01 | 0.00 | 53 | 1012.3 |
| 20260507142111 | 54 | 27 | 0.0 | 5.2 | 0.00 | 0.01 | 0.00 | 60 | 1012.3 |
| 20260507141615 | 54 | 142 | 2.6 | 5.2 | 0.00 | 0.01 | 0.00 | 58 | 1012.7 |
| 20260507141332 | 53 | 280 | 5.2 | 5.2 | 0.00 | 0.01 | 0.00 | 56 | 1012.5 |
| 20260507140612 | 53 | 139 | 1.7 | 5.2 | 0.00 | 0.01 | 0.00 | 64 | 1012.8 |
| 20260507140115 | 53 | 185 | 1.7 | 3.5 | 0.00 | 0.01 | 0.00 | 61 | 1012.7 |
| 20260507135613 | 53 | 21 | 1.7 | 5.2 | 0.00 | 0.02 | 0.00 | 63 | 1012.7 |
| 20260507135112 | 52 | 202 | 0.9 | 5.2 | 0.00 | 0.02 | 0.00 | 65 | 1012.8 |
| 20260507134615 | 52 | 155 | 1.7 | 5.2 | 0.00 | 0.02 | 0.00 | 65 | 1012.8 |
| 20260507134112 | 51 | 271 | 3.5 | 5.2 | 0.00 | 0.02 | 0.00 | 64 | 1012.6 |
| 20260507133611 | 51 | 131 | 2.6 | 5.2 | 0.00 | 0.02 | 0.00 | 65 | 1012.9 |
| 20260507133115 | 51 | 171 | 1.7 | 6.1 | 0.00 | 0.02 | 0.00 | 65 | 1013.0 |
| 20260507132613 | 51 | 121 | 1.7 | 7.0 | 0.00 | 0.02 | 0.00 | 67 | 1013.2 |
| 20260507132111 | 50 | 231 | 1.7 | 7.0 | 0.00 | 0.02 | 0.00 | 68 | 1013.1 |
| 20260507131614 | 50 | 300 | 1.7 | 4.3 | 0.00 | 0.03 | 0.00 | 68 | 1013.0 |
| 20260507131111 | 50 | 197 | 0.0 | 4.3 | 0.00 | 0.04 | 0.00 | 67 | 1013.0 |
| 20260507130611 | 50 | 66 | 0.0 | 4.3 | 0.00 | 0.04 | 0.00 | 71 | 1012.9 |
| 20260507130116 | 50 | 140 | 1.7 | 3.5 | 0.00 | 0.04 | 0.00 | 72 | 1012.8 |
| 20260507125611 | 49 | 151 | 0.9 | 3.5 | 0.00 | 0.04 | 0.00 | 73 | 1013.0 |
| 20260507125113 | 49 | 189 | 1.7 | 5.2 | 0.00 | 0.04 | 0.00 | 76 | 1013.0 |
| 20260507124615 | 49 | 131 | 2.6 | 5.2 | 0.00 | 0.04 | 0.00 | 77 | 1012.9 |
| 20260507124112 | 48 | 144 | 1.7 | 4.3 | 0.00 | 0.04 | 0.00 | 78 | 1013.1 |
| 20260507123612 | 48 | 137 | 0.9 | 4.3 | 0.00 | 0.04 | 0.00 | 80 | 1013.0 |
| 20260507123114 | 47 | 134 | 1.7 | 3.5 | 0.00 | 0.04 | 0.00 | 82 | 1013.2 |
| 20260507122611 | 46 | 135 | 2.6 | 3.5 | 0.00 | 0.04 | 0.00 | 84 | 1013.0 |
| 20260507122111 | 45 | 214 | 0.9 | 3.5 | 0.00 | 0.04 | 0.00 | 86 | 1012.9 |
| 20260507121616 | 44 | 110 | 0.0 | 3.5 | 0.00 | 0.05 | 0.00 | 91 | 1012.9 |
| 20260507121112 | 43 | 107 | 1.7 | 1.7 | 0.00 | 0.06 | 0.00 | 95 | 1013.2 |
| 20260507120612 | 43 | 117 | 1.7 | 1.7 | 0.00 | 0.06 | 0.00 | 97 | 1013.0 |
| 20260507120115 | 42 | 193 | 0.0 | 1.7 | 0.00 | 0.07 | 0.00 | 97 | 1013.3 |
| 20260507115611 | 41 | 32 | 0.0 | 1.7 | 0.00 | 0.08 | 0.00 | 97 | 1013.3 |
| 20260507115329 | 41 | 51 | 0.9 | 1.7 | 0.00 | 0.08 | 0.00 | 97 | 1012.8 |
| 20260507114616 | 40 | 89 | 0.0 | 1.7 | 0.00 | 0.08 | 0.00 | 97 | 1013.0 |
| 20260507114339 | 40 | 116 | 0.0 | 1.7 | 0.00 | 0.08 | 0.00 | 97 | 1013.0 |
| 20260507113612 | 39 | 89 | 0.0 | 1.7 | 0.00 | 0.08 | 0.00 | 97 | 1013.0 |
| 20260507113116 | 39 | 131 | 0.0 | 2.6 | 0.00 | 0.08 | 0.00 | 97 | 1012.7 |
| 20260507112832 | 38 | 101 | 0.0 | 2.6 | 0.00 | 0.08 | 0.00 | 97 | 1012.8 |
| 20260507112113 | 38 | 62 | 0.9 | 2.6 | 0.00 | 0.09 | 0.00 | 97 | 1012.7 |
| 20260507111615 | 38 | 70 | 0.0 | 1.7 | 0.00 | 0.09 | 0.00 | 97 | 1012.5 |
| 20260507111111 | 38 | 89 | 0.0 | 1.7 | 0.00 | 0.09 | 0.00 | 97 | 1012.8 |
| 20260507110841 | 37 | 146 | 0.0 | 1.7 | 0.00 | 0.09 | 0.00 | 97 | 1012.5 |
| 20260507110115 | 36 | 103 | 0.9 | 1.7 | 0.00 | 0.09 | 0.00 | 97 | 1012.5 |
| 20260507105612 | 36 | 92 | 0.0 | 1.7 | 0.00 | 0.10 | 0.00 | 97 | 1012.6 |
| 20260507105111 | 36 | 86 | 0.0 | 1.7 | 0.00 | 0.12 | 0.00 | 97 | 1012.5 |
| 20260507104841 | 36 | 89 | 0.9 | 1.7 | 0.00 | 0.13 | 0.00 | 97 | 1012.5 |
| 20260507104113 | 36 | 72 | 0.0 | 1.7 | 0.00 | 0.14 | 0.00 | 96 | 1012.7 |
| 20260507103842 | 36 | 84 | 0.9 | 1.7 | 0.00 | 0.14 | 0.00 | 96 | 1012.4 |
| 20260507103114 | 36 | 75 | 0.0 | 1.7 | 0.00 | 0.15 | 0.00 | 96 | 1012.4 |
| 20260507102612 | 36 | 63 | 0.0 | 1.7 | 0.00 | 0.16 | 0.00 | 96 | 1012.4 |
| 20260507102111 | 36 | 116 | 0.0 | 2.6 | 0.00 | 0.17 | 0.00 | 96 | 1012.2 |
| 20260507101614 | 36 | 86 | 0.0 | 2.6 | 0.00 | 0.20 | 0.00 | 96 | 1012.3 |
| 20260507101333 | 36 | 76 | 0.9 | 1.7 | 0.00 | 0.23 | 0.00 | 96 | 1012.5 |
| 20260507100612 | 36 | 80 | 0.0 | 1.7 | 0.00 | 0.24 | 0.00 | 96 | 1012.3 |
| 20260507095611 | 36 | 99 | 0.0 | 1.7 | 0.00 | 0.29 | 0.00 | 96 | 1012.1 |
| 20260507095113 | 36 | 54 | 0.9 | 2.6 | 0.00 | 0.30 | 0.00 | 96 | 1012.1 |
| 20260507094614 | 36 | 86 | 0.9 | 2.6 | 0.00 | 0.31 | 0.00 | 96 | 1012.2 |
| 20260507094111 | 36 | 71 | 0.0 | 2.6 | 0.00 | 0.31 | 0.00 | 96 | 1012.4 |
| 20260507093614 | 37 | 70 | 0.9 | 1.7 | 0.00 | 0.32 | 0.00 | 96 | 1012.3 |
| 20260507093114 | 37 | 77 | 1.7 | 1.7 | 0.00 | 0.33 | 0.00 | 95 | 1012.3 |
| 20260507092611 | 37 | 102 | 1.7 | 1.7 | 0.00 | 0.34 | 0.00 | 95 | 1012.1 |
| 20260507092111 | 37 | 84 | 0.0 | 1.7 | 0.00 | 0.35 | 0.00 | 95 | 1012.6 |
| 20260507091615 | 37 | 63 | 0.9 | 1.7 | 0.00 | 0.36 | 0.00 | 95 | 1012.3 |
| 20260507091111 | 37 | 93 | 0.9 | 1.7 | 0.00 | 0.39 | 0.00 | 95 | 1012.4 |
| 20260507090611 | 37 | 72 | 1.7 | 2.6 | 0.00 | 0.40 | 0.00 | 95 | 1012.5 |
| 20260507090115 | 37 | 76 | 0.9 | 2.6 | 0.00 | 0.42 | 0.00 | 95 | 1012.4 |
| 20260507085613 | 37 | 72 | 0.9 | 1.7 | 0.00 | 0.43 | 0.00 | 94 | 1012.3 |
| 20260507085111 | 38 | 67 | 0.0 | 1.7 | 0.00 | 0.44 | 0.00 | 94 | 1012.4 |
| 20260507084615 | 38 | 124 | 0.0 | 1.7 | 0.00 | 0.45 | 0.00 | 94 | 1012.6 |
| 20260507084111 | 38 | 70 | 0.9 | 1.7 | 0.00 | 0.46 | 0.00 | 94 | 1012.3 |
| 20260507083613 | 38 | 66 | 0.0 | 2.6 | 0.00 | 0.46 | 0.00 | 94 | 1012.2 |
| 20260507083115 | 38 | 72 | 1.7 | 2.6 | 0.00 | 0.47 | 0.00 | 94 | 1012.2 |
| 20260507082612 | 38 | 46 | 0.0 | 1.7 | 0.00 | 0.48 | 0.00 | 93 | 1012.3 |
| 20260507082113 | 38 | 88 | 0.0 | 1.7 | 0.00 | 0.49 | 0.00 | 93 | 1012.4 |
| 20260507081836 | 39 | 111 | 0.9 | 1.7 | 0.00 | 0.50 | 0.00 | 93 | 1012.2 |
| 20260507081112 | 39 | 72 | 0.0 | 1.7 | 0.00 | 0.50 | 0.00 | 93 | 1012.2 |
| 20260507080611 | 39 | 112 | 0.9 | 2.6 | 0.00 | 0.50 | 0.00 | 92 | 1012.2 |
| 20260507080115 | 39 | 70 | 1.7 | 2.6 | 0.00 | 0.50 | 0.00 | 92 | 1012.3 |
| 20260507075617 | 40 | 92 | 0.0 | 2.6 | 0.00 | 0.50 | 0.00 | 91 | 1012.2 |
| 20260507075611 | 40 | 98 | 1.7 | 2.6 | 0.00 | 0.50 | 0.00 | 92 | 1012.3 |
| 20260507074615 | 40 | 93 | 0.0 | 2.6 | 0.00 | 0.50 | 0.00 | 91 | 1012.4 |
| 20260507074111 | 40 | 69 | 0.9 | 2.6 | 0.00 | 0.50 | 0.00 | 91 | 1012.3 |
| 20260507073612 | 40 | 79 | 0.9 | 1.7 | 0.00 | 0.50 | 0.00 | 90 | 1012.4 |
| 20260507073115 | 41 | 105 | 0.9 | 2.6 | 0.00 | 0.50 | 0.00 | 89 | 1012.4 |
| 20260507072614 | 41 | 55 | 0.0 | 2.6 | 0.00 | 0.51 | 0.00 | 89 | 1012.1 |
| 20260507072111 | 42 | 79 | 0.0 | 1.7 | 0.00 | 0.51 | 0.00 | 88 | 1012.2 |
| 20260507071615 | 42 | 72 | 1.7 | 1.7 | 0.00 | 0.51 | 0.00 | 88 | 1012.3 |
| 20260507071111 | 42 | 61 | 1.7 | 1.7 | 0.00 | 0.52 | 0.00 | 87 | 1012.4 |
| 20260507070611 | 43 | 130 | 0.0 | 1.7 | 0.00 | 0.52 | 0.00 | 86 | 1012.2 |
| 20260507070337 | 43 | 99 | 0.9 | 1.7 | 0.00 | 0.53 | 0.00 | 85 | 1012.3 |
| 20260507065611 | 44 | 70 | 0.9 | 1.7 | 0.00 | 0.53 | 0.00 | 84 | 1012.2 |
| 20260507065112 | 44 | 75 | 0.9 | 1.7 | 0.00 | 0.53 | 0.00 | 83 | 1012.5 |
| 20260507064616 | 44 | 81 | 0.0 | 1.7 | 0.00 | 0.54 | 0.00 | 81 | 1012.4 |
| 20260507064111 | 45 | 60 | 0.0 | 1.7 | 0.00 | 0.54 | 0.00 | 81 | 1012.5 |
| 20260507063612 | 45 | 61 | 0.0 | 1.7 | 0.00 | 0.54 | 0.00 | 80 | 1012.4 |
| 20260507063337 | 46 | 73 | 0.9 | 1.7 | 0.00 | 0.54 | 0.00 | 79 | 1012.4 |
| 20260507062613 | 46 | 75 | 0.0 | 1.7 | 0.00 | 0.55 | 0.00 | 79 | 1012.4 |
| 20260507062112 | 46 | 40 | 0.9 | 1.7 | 0.00 | 0.55 | 0.00 | 79 | 1012.5 |
| 20260507061634 | 47 | 113 | 0.0 | 1.7 | 0.00 | 0.56 | 0.00 | 79 | 1012.3 |
| 20260507061616 | 46 | 71 | 0.0 | 1.7 | 0.00 | 0.56 | 0.00 | 79 | 1012.5 |
| 20260507060611 | 47 | 85 | 0.9 | 1.7 | 0.00 | 0.56 | 0.00 | 77 | 1012.6 |
| 20260507060115 | 47 | 119 | 0.9 | 1.7 | 0.00 | 0.57 | 0.00 | 76 | 1012.6 |
| 20260507055611 | 47 | 62 | 0.0 | 1.7 | 0.00 | 0.57 | 0.00 | 75 | 1012.4 |
| 20260507055111 | 47 | 72 | 0.0 | 1.7 | 0.00 | 0.57 | 0.00 | 75 | 1012.7 |
| 20260507054617 | 47 | 86 | 0.9 | 2.6 | 0.00 | 0.57 | 0.00 | 75 | 1012.7 |
| 20260507054111 | 47 | 79 | 0.9 | 2.6 | 0.00 | 0.57 | 0.00 | 77 | 1013.1 |
| 20260507053612 | 47 | 92 | 0.9 | 1.7 | 0.00 | 0.57 | 0.00 | 81 | 1013.0 |
| 20260507053114 | 47 | 91 | 0.9 | 1.7 | 0.00 | 0.57 | 0.00 | 83 | 1013.1 |
| 20260507052612 | 47 | 49 | 0.0 | 1.7 | 0.00 | 0.57 | 0.00 | 83 | 1013.1 |
| 20260507052112 | 47 | 112 | 0.0 | 1.7 | 0.00 | 0.58 | 0.00 | 83 | 1013.1 |
| 20260507051615 | 47 | 87 | 0.9 | 1.7 | 0.00 | 0.58 | 0.00 | 83 | 1013.1 |
| 20260507051111 | 47 | 105 | 0.9 | 1.7 | 0.00 | 0.59 | 0.00 | 81 | 1013.0 |
| 20260507050625 | 47 | 85 | 0.0 | 1.7 | 0.00 | 0.59 | 0.00 | 81 | 1012.9 |
| 20260507050116 | 47 | 71 | 0.9 | 1.7 | 0.00 | 0.59 | 0.00 | 81 | 1012.9 |
| 20260507045611 | 47 | 71 | 0.0 | 1.7 | 0.00 | 0.59 | 0.00 | 81 | 1012.8 |
| 20260507045334 | 47 | 84 | 0.9 | 1.7 | 0.00 | 0.59 | 0.00 | 80 | 1013.0 |
| 20260507044614 | 47 | 75 | 0.9 | 1.7 | 0.00 | 0.60 | 0.00 | 80 | 1013.1 |
| 20260507044111 | 47 | 63 | 0.9 | 1.7 | 0.00 | 0.60 | 0.00 | 80 | 1013.0 |
| 20260507043611 | 47 | 76 | 0.9 | 1.7 | 0.00 | 0.60 | 0.00 | 79 | 1012.9 |
| 20260507043115 | 47 | 66 | 0.9 | 1.7 | 0.00 | 0.60 | 0.00 | 79 | 1013.1 |
| 20260507042613 | 47 | 70 | 0.9 | 1.7 | 0.00 | 0.60 | 0.00 | 79 | 1013.0 |
| 20260507042113 | 48 | 46 | 0.9 | 1.7 | 0.00 | 0.60 | 0.00 | 79 | 1013.1 |
| 20260507041617 | 48 | 77 | 0.0 | 1.7 | 0.00 | 0.60 | 0.00 | 77 | 1012.9 |
| 20260507041336 | 48 | 93 | 0.0 | 1.7 | 0.00 | 0.60 | 0.00 | 77 | 1013.1 |
| 20260507040611 | 48 | 87 | 0.0 | 1.7 | 0.00 | 0.60 | 0.00 | 75 | 1012.9 |
| 20260507040114 | 48 | 56 | 0.9 | 1.7 | 0.00 | 0.60 | 0.00 | 75 | 1013.0 |
| 20260507035611 | 48 | 89 | 0.9 | 1.7 | 0.00 | 0.60 | 0.60 | 74 | 1012.9 |
| 20260507035112 | 48 | 48 | 0.9 | 1.7 | 0.00 | 0.60 | 0.60 | 74 | 1012.7 |
| 20260507034615 | 48 | 70 | 0.9 | 1.7 | 0.00 | 0.60 | 0.60 | 74 | 1012.8 |
| 20260507034111 | 49 | 66 | 0.0 | 1.7 | 0.00 | 0.60 | 0.60 | 75 | 1013.1 |
| 20260507033836 | 49 | 77 | 0.0 | 1.7 | 0.00 | 0.60 | 0.60 | 74 | 1012.9 |
| 20260507033114 | 49 | 117 | 0.9 | 2.6 | 0.00 | 0.60 | 0.60 | 72 | 1012.7 |
| 20260507032612 | 49 | 106 | 0.0 | 2.6 | 0.00 | 0.60 | 0.60 | 70 | 1012.9 |
| 20260507032112 | 49 | 59 | 0.9 | 1.7 | 0.00 | 0.60 | 0.60 | 70 | 1012.8 |
| 20260507031615 | 49 | 325 | 0.9 | 1.7 | 0.00 | 0.60 | 0.60 | 70 | 1012.7 |
| 20260507031111 | 49 | 76 | 0.0 | 1.7 | 0.00 | 0.60 | 0.60 | 71 | 1012.5 |
| 20260507030612 | 49 | 15 | 0.0 | 1.7 | 0.00 | 0.60 | 0.60 | 71 | 1012.3 |
| 20260507030115 | 49 | 76 | 0.9 | 1.7 | 0.00 | 0.60 | 0.60 | 73 | 1012.8 |
| 20260507025612 | 49 | 106 | 0.9 | 1.7 | 0.00 | 0.60 | 0.60 | 71 | 1012.5 |
| 20260507025113 | 49 | 82 | 0.9 | 1.7 | 0.00 | 0.60 | 0.60 | 73 | 1012.4 |
| 20260507025106 | 49 | 63 | 0.0 | 1.7 | 0.00 | 0.60 | 0.60 | 72 | 1012.5 |
| 20260507024337 | 49 | 82 | 0.0 | 1.7 | 0.00 | 0.60 | 0.60 | 73 | 1012.4 |
| 20260507023611 | 49 | 81 | 0.9 | 1.7 | 0.00 | 0.60 | 0.60 | 72 | 1012.4 |
| 20260507023117 | 49 | 88 | 0.9 | 1.7 | 0.00 | 0.60 | 0.60 | 70 | 1012.5 |
| 20260507022613 | 50 | 36 | 0.0 | 1.7 | 0.00 | 0.60 | 0.60 | 70 | 1012.4 |
| 20260507022121 | 50 | 41 | 0.9 | 1.7 | 0.00 | 0.60 | 0.60 | 69 | 1012.2 |
| 20260507021836 | 50 | 100 | 0.0 | 2.6 | 0.00 | 0.60 | 0.60 | 70 | 1012.0 |
| 20260507021127 | 50 | 301 | 0.0 | 5.2 | 0.00 | 0.60 | 0.60 | 68 | 1012.0 |
| 20260507021113 | 50 | 140 | 0.0 | 5.2 | 0.00 | 0.60 | 0.60 | 70 | 1012.3 |
| 20260507020118 | 50 | 38 | 0.0 | 1.7 | 0.00 | 0.60 | 0.60 | 71 | 1012.1 |
| 20260507015614 | 50 | 55 | 0.0 | 1.7 | 0.00 | 0.60 | 0.60 | 70 | 1011.9 |
| 20260507015116 | 50 | 51 | 0.9 | 1.7 | 0.00 | 0.60 | 0.60 | 71 | 1011.9 |
| 20260507014617 | 50 | 69 | 0.9 | 1.7 | 0.00 | 0.60 | 0.60 | 69 | 1012.0 |
| 20260507014127 | 51 | 135 | 0.0 | 1.7 | 0.00 | 0.60 | 0.60 | 70 | 1011.7 |
| 20260507013614 | 51 | 63 | 0.0 | 2.6 | 0.00 | 0.60 | 0.60 | 69 | 1011.5 |
| 20260507013116 | 51 | 148 | 1.7 | 2.6 | 0.00 | 0.60 | 0.60 | 69 | 1011.4 |
| 20260507012612 | 51 | 106 | 0.0 | 2.6 | 0.00 | 0.60 | 0.60 | 70 | 1011.5 |
| 20260507012112 | 51 | 142 | 1.7 | 2.6 | 0.00 | 0.60 | 0.60 | 70 | 1011.5 |
| 20260507011620 | 51 | 67 | 0.9 | 1.7 | 0.00 | 0.60 | 0.60 | 71 | 1011.5 |
| 20260507011353 | 51 | 70 | 0.9 | 1.7 | 0.00 | 0.60 | 0.60 | 73 | 1011.4 |
| 20260507010614 | 51 | 59 | 0.9 | 2.6 | 0.00 | 0.60 | 0.60 | 70 | 1011.8 |
| 20260507010122 | 51 | 70 | 0.9 | 2.6 | 0.00 | 0.60 | 0.60 | 71 | 1011.8 |
| 20260507005611 | 51 | 94 | 0.0 | 2.6 | 0.00 | 0.60 | 0.60 | 71 | 1011.6 |
| 20260507005112 | 51 | 94 | 0.9 | 2.6 | 0.00 | 0.60 | 0.60 | 70 | 1011.7 |
| 20260507004614 | 51 | 85 | 0.9 | 2.6 | 0.00 | 0.60 | 0.60 | 70 | 1011.8 |
| 20260507004111 | 51 | 72 | 0.9 | 1.7 | 0.00 | 0.60 | 0.60 | 71 | 1012.0 |
| 20260507003611 | 52 | 114 | 0.0 | 2.6 | 0.00 | 0.60 | 0.60 | 72 | 1012.0 |
| 20260507003337 | 52 | 80 | 0.0 | 2.6 | 0.00 | 0.60 | 0.60 | 73 | 1011.8 |
| 20260507002615 | 52 | 94 | 0.9 | 3.5 | 0.00 | 0.60 | 0.60 | 73 | 1011.9 |
| 20260507002112 | 52 | 110 | 1.7 | 3.5 | 0.00 | 0.60 | 0.60 | 73 | 1011.9 |
| 20260507001615 | 53 | 114 | 1.7 | 6.1 | 0.00 | 0.60 | 0.60 | 75 | 1011.9 |
| 20260507001113 | 53 | 79 | 1.7 | 6.1 | 0.00 | 0.60 | 0.60 | 76 | 1012.0 |
| 20260507001107 | 53 | 228 | 0.0 | 1.7 | 0.00 | 0.60 | 0.60 | 77 | 1011.7 |
| 20260507000115 | 53 | 109 | 0.0 | 1.7 | 0.00 | 0.60 | 0.60 | 77 | 1011.6 |
| 20260506235612 | 53 | 70 | 0.9 | 1.7 | 0.00 | 0.60 | 0.60 | 77 | 1011.6 |
| 20260506235111 | 53 | 93 | 0.9 | 2.6 | 0.00 | 0.60 | 0.60 | 78 | 1011.5 |
| 20260506234614 | 53 | 117 | 0.9 | 2.6 | 0.00 | 0.60 | 0.60 | 75 | 1011.5 |
| 20260506234112 | 53 | 67 | 0.0 | 1.7 | 0.00 | 0.60 | 0.60 | 77 | 1011.3 |
| 20260506233611 | 54 | 93 | 0.9 | 1.7 | 0.00 | 0.60 | 0.60 | 77 | 1011.3 |
| 20260506233117 | 54 | 119 | 0.9 | 1.7 | 0.00 | 0.60 | 0.60 | 75 | 1011.4 |
| 20260506232613 | 53 | 207 | 0.0 | 1.7 | 0.00 | 0.60 | 0.60 | 75 | 1011.4 |
| 20260506232342 | 54 | 98 | 0.0 | 1.7 | 0.00 | 0.60 | 0.60 | 76 | 1011.1 |